FW5964 Weather Reports


time (UTC)temp
C
wind
direction
speed
KPH
gust
KPH
rain 1hr
cm
rain 24hr
cm
rain mn
cm
humidity
%
barometer
mb
20260507164605 11 279 6.4 14.5 0.53 2.97 2.97 97 1012.2
20260507163106 11 274 3.2 16.1 0.48 2.87 2.87 97 1012.1
20260507161558 11 281 6.4 20.9 0.56 2.77 2.77 97 1012.4
20260507160054 11 257 3.2 14.5 0.66 2.62 2.62 97 1012.3
20260507154559 11 148 6.4 17.7 0.56 2.46 2.46 97 1012.1
20260507153049 11 243 6.4 16.1 0.51 2.39 2.39 97 1012.1
20260507151549 11 231 6.4 20.9 0.36 2.21 2.21 97 1012.4
20260507150056 11 246 6.4 22.5 0.10 1.96 1.96 96 1013.0
20260507144553 11 229 6.4 24.1 0.05 1.91 1.91 97 1012.4
20260507143100 12 195 8.0 20.9 0.03 1.88 1.88 96 1012.4
20260507141551 12 229 8.0 20.9 0.00 1.85 1.85 96 1012.0
20260507140055 14 201 8.0 17.7 0.03 1.85 1.85 97 1011.9
20260507134550 14 212 4.8 14.5 0.13 1.85 1.85 97 1011.7
20260507133054 13 240 9.7 20.9 0.13 1.85 1.85 96 1011.6
20260507131611 14 126 4.8 16.1 0.15 1.85 1.85 97 1011.6
20260507130056 14 255 6.4 17.7 0.25 1.83 1.83 97 1011.6
20260507124554 14 223 4.8 17.7 0.18 1.73 1.73 97 1012.1
20260507123054 14 222 6.4 17.7 0.23 1.73 1.73 97 1011.7
20260507121556 14 251 6.4 17.7 0.33 1.70 1.70 96 1011.8
20260507120050 14 257 4.8 12.9 0.25 1.57 1.57 96 1011.8
20260507114559 15 155 6.4 17.7 0.30 1.55 1.55 96 1011.7
20260507113100 15 211 8.0 19.3 0.33 1.47 1.47 95 1011.6
20260507111557 18 0 0.0 1.6 0.51 1.37 1.37 97 1011.2
20260507110059 18 0 0.0 3.2 0.97 1.32 1.32 97 1011.0
20260507104554 18 0 0.0 6.4 1.12 1.24 1.24 96 1010.9
20260507103053 18 0 0.0 4.8 1.02 1.14 1.14 96 1010.8
20260507101559 18 0 0.0 4.8 0.74 0.86 0.86 95 1010.6
20260507100057 18 0 0.0 1.6 0.33 0.36 0.36 94 1010.8
20260507094553 18 29 0.0 3.2 0.10 0.13 0.13 93 1010.1
20260507093055 18 0 0.0 6.4 0.10 0.13 0.13 92 1009.8
20260507091551 19 350 0.0 11.3 0.10 0.13 0.13 90 1010.1
20260507090056 20 30 1.6 14.5 0.00 0.03 0.03 87 1010.4
20260507084553 20 359 1.6 12.9 0.00 0.03 0.03 86 1010.2
20260507083102 20 49 0.0 4.8 0.00 0.03 0.03 86 1010.4
20260507081555 20 342 1.6 12.9 0.00 0.03 0.03 86 1010.6
20260507080116 20 19 0.0 9.7 0.00 0.03 0.03 86 1010.7
20260507074555 20 0 1.6 9.7 0.00 0.03 0.03 86 1010.9
20260507073053 19 11 0.0 9.7 0.00 0.03 0.03 87 1010.9
20260507071608 19 2 0.0 8.0 0.00 0.03 0.03 87 1010.7
20260507070052 19 23 0.0 6.4 0.03 0.03 0.03 87 1010.7
20260507064554 19 39 0.0 8.0 0.03 0.03 0.03 87 1010.5
20260507063056 19 0 0.0 4.8 0.03 0.03 0.03 86 1010.2
20260507061559 19 0 0.0 6.4 0.03 0.03 0.03 86 1010.9
20260507054554 20 0 0.0 6.4 0.00 0.00 0.00 84 1011.6
20260507053124 20 0 0.0 6.4 0.00 0.00 0.00 83 1011.8
20260507051606 20 0 0.0 6.4 0.00 0.00 0.00 81 1011.9
20260507050108 21 0 0.0 6.4 0.00 0.00 0.00 78 1011.8
20260507044610 21 68 0.0 6.4 0.00 0.00 0.00 76 1011.5
20260507043054 21 0 0.0 4.8 0.00 0.00 0.00 76 1011.5
20260507041555 21 0 1.6 9.7 0.00 0.00 0.00 76 1011.7
20260507040055 21 0 1.6 11.3 0.00 0.00 0.00 76 1011.6
20260507034552 21 0 0.0 1.6 0.00 0.00 0.00 77 1011.4
20260507033100 21 0 0.0 6.4 0.00 0.00 0.00 76 1011.4
20260507031556 21 0 0.0 1.6 0.00 0.00 0.00 76 1011.1
20260507030053 21 0 0.0 1.6 0.00 0.00 0.00 76 1011.7
20260507024604 21 0 0.0 3.2 0.00 0.00 0.00 76 1011.8
20260507023059 21 0 0.0 1.6 0.00 0.00 0.00 76 1012.0
20260507021552 21 336 0.0 1.6 0.00 0.00 0.00 75 1011.7
20260507020057 21 0 0.0 1.6 0.00 0.00 0.00 74 1011.8
20260507014614 22 0 0.0 3.2 0.00 0.00 0.00 73 1012.1
20260507013053 22 0 0.0 8.0 0.00 0.00 0.00 72 1011.8
20260507011558 22 0 0.0 4.8 0.00 0.00 0.00 71 1011.8
20260507010104 22 0 0.0 9.7 0.00 0.00 0.00 70 1012.0
20260507004611 22 4 0.0 3.2 0.00 0.00 0.00 69 1011.8
20260507003055 23 0 0.0 4.8 0.00 0.00 0.00 68 1011.7
20260507001555 23 0 0.0 4.8 0.00 0.00 0.00 67 1011.5
20260507000055 23 0 0.0 9.7 0.00 0.00 0.00 66 1011.3
20260506234553 24 30 0.0 19.3 0.00 0.00 0.00 65 1011.2
20260506233057 24 82 1.6 6.4 0.00 0.00 0.00 64 1011.1
20260506231603 25 0 1.6 9.7 0.00 0.00 0.00 63 1011.0
20260506230056 25 0 0.0 12.9 0.00 0.00 0.00 63 1010.8
20260506224602 25 74 3.2 11.3 0.00 0.00 0.00 62 1010.8
20260506223110 25 15 1.6 12.9 0.00 0.00 0.00 63 1011.0
20260506221558 25 32 0.0 8.0 0.00 0.00 0.00 63 1011.0
20260506220053 25 21 3.2 19.3 0.00 0.00 0.00 63 1011.0
20260506214603 25 51 3.2 22.5 0.00 0.00 0.00 63 1010.6
20260506213056 25 0 1.6 19.3 0.00 0.00 0.00 62 1010.6
20260506211604 25 20 4.8 14.5 0.00 0.00 0.00 63 1010.6
20260506210057 25 24 1.6 17.7 0.00 0.00 0.00 63 1010.6
20260506204556 25 359 3.2 11.3 0.00 0.00 0.00 63 1010.8
20260506203055 25 11 1.6 24.1 0.00 0.00 0.00 61 1011.0
20260506201551 25 339 3.2 17.7 0.00 0.00 0.00 64 1011.4
20260506200101 25 62 3.2 9.7 0.00 0.00 0.00 66 1011.6
20260506194602 25 53 4.8 9.7 0.00 0.00 0.00 66 1011.8
20260506193056 25 330 4.8 17.7 0.00 0.00 0.00 65 1012.2
20260506191605 25 10 1.6 19.3 0.00 0.00 0.00 67 1012.3
20260506190054 25 20 3.2 14.5 0.00 0.00 0.00 67 1012.3
20260506184554 24 91 3.2 22.5 0.00 0.00 0.00 67 1012.6
20260506183056 25 330 4.8 24.1 0.00 0.00 0.00 66 1012.6
20260506181559 24 108 3.2 16.1 0.00 0.00 0.00 67 1012.9
20260506180111 24 35 3.2 24.1 0.00 0.00 0.00 67 1013.2
20260506174553 24 340 1.6 19.3 0.00 0.00 0.00 67 1013.5
20260506173124 23 13 3.2 16.1 0.00 0.00 0.00 68 1013.9
20260506171554 23 63 3.2 12.9 0.00 0.00 0.00 68 1014.3